User: anonymous   Login
Location: Melbourne
(37.8170°S, 144.9670°E)
Time: 07:46:15
(UTC+11:00)
Language:

ERBS - Orbit

View from above orbital plane
View from above orbital plane
View from above satellite
View from above satellite

Ground track
Ground track

The orbit data is extracted from the following two-line orbital elements,

1 15354U 84108B   15089.17118695  .00017560  00000-0  52916-3 0  9995
2 15354 057.0133 006.0587 0016560 032.6032 327.6038 15.34353212673429
Epoch (UTC): 30 March 2015 04:06:30
Eccentricity: 0.0016560
inclination: 57.0133°
perigee height: 451 km
apogee height: 474 km
right ascension of ascending node: 6.0587°
argument of perigee: 32.6032°
revolutions per day: 15.34353212
mean anomaly at epoch: 327.6038°
orbit number at epoch: 67342

The dashed part of the orbit path shows where the satellite is in the earth's shadow,  

DLR